Location: Ab? ar R?sh Ba?r?
(24.1861°N, 32.8847°E)
Time: 23:32:57
(UTC+00:00)

Cosmos 1602 Rocket - Pass Details

Date: 24 October 2021
Orbit: 603 x 633 km, 82.5° (Epoch: 05 December)

Event Time Altitude Azimuth Distance (km) Brightness Sun altitude
Rises 16:13:49 0° 5° (N) 2,859 6.8 -14.2°
Reaches altitude 10° 16:16:10 10° 13° (NNE) 1,951 5.9 -14.7°
Maximum altitude 16:20:11 38° 82° (E) 921 3.9 -15.6°
Drops below altitude 10° 16:24:11 10° 151° (SSE) 1,939 5.9 -16.5°
Sets 16:26:30 0° 160° (SSE) 2,839 6.8 -17.0°
